Theta_e
297 301 305 312 317 320 325 328 328 329 328 325 327 326 329 331 332 332 331 329 328 328 326 325 323 321 317 315 314 312 311 309 308 308 307 304 306 306 307 308 309 311 313
295 297 299 306 314 316 320 324 328 328 328 328 328 325 326 329 331 332 331 330 329 328 327 325 324 322 318 316 314 309 306 309 307 307 305 304 307 306 307 306 307 307 309
295 296 297 299 300 302 306 315 323 327 329 328 326 322 324 325 328 329 329 329 328 327 326 325 324 323 320 318 316 313 311 310 308 308 308 303 302 304 306 304 303 304 306
295 295 294 295 295 298 300 300 301 316 325 325 325 324 323 322 323 324 328 329 328 327 326 326 325 324 322 319 318 315 313 312 309 304 307 308 307 303 301 303 302 302 302
294 295 297 299 300 302 302 303 302 300 303 324 325 324 320 321 322 325 326 327 326 326 325 325 324 323 322 321 319 314 313 312 312 308 304 304 303 302 301 298 302 301 301
295 297 298 301 301 302 305 305 305 301 299 303 321 324 320 324 322 321 322 323 324 324 324 323 322 322 320 319 318 317 314 313 312 311 307 305 304 301 299 298 299 300 300
295 296 298 299 300 300 304 304 301 302 300 305 311 319 320 320 319 320 320 321 321 321 321 320 320 319 319 318 317 316 314 312 310 309 309 308 307 306 302 301 301 298 300
294 296 297 298 299 300 303 306 306 304 305 307 308 312 316 317 317 319 320 319 319 319 320 320 319 319 318 318 316 314 313 311 310 309 308 308 307 307 306 303 300 300 300
294 296 296 297 297 298 302 304 305 304 305 305 306 307 309 312 313 313 313 313 313 312 313 314 313 312 312 312 312 311 309 309 308 307 307 306 307 306 306 305 304 301 295
295 295 295 296 296 297 298 301 302 302 301 302 302 302 303 304 306 307 305 305 304 305 305 304 304 302 302 303 303 301 299 299 298 298 297 297 298 298 300 301 302 302 299
293 294 295 295 296 296 296 296 298 298 297 298 298 297 297 297 299 300 299 298 298 298 298 297 296 294 294 294 294 293 293 293 293 292 292 292 293 292 292 293 294 295 296
293 293 294 294 294 294 294 294 294 294 294 294 294 293 294 294 295 294 294 294 293 292 291 291 291 291 290 290 290 289 289 289 288 289 289 289 291 289 290 291 291 292 292
293 293 292 292 292 292 292 292 292 292 291 291 291 290 291 291 290 290 289 289 289 289 289 289 289 288 287 287 287 287 287 287 287 287 287 288 288 286 286 286 288 288 289
294 293 292 291 291 291 291 290 290 290 290 289 289 288 288 288 288 288 288 287 287 287 286 286 285 285 285 286 285 286 286 286 286 286 286 286 286 285 285 286 286 286 286
293 293 292 292 291 290 290 290 289 289 289 289 288 287 286 287 287 286 285 285 285 284 284 284 284 284 285 286 285 285 285 284 284 284 285 285 284 286 287 286 285 285 285
294 294 293 291 290 290 289 289 288 288 288 287 286 286 285 284 284 284 284 284 283 283 283 283 283 283 283 289 290 287 284 283 283 283 283 283 283 284 287 287 287 287 284
294 293 293 292 291 290 290 288 287 286 285 285 284 284 283 283 283 283 283 282 282 282 282 282 282 282 282 288 289 288 284 282 282 282 284 284 284 285 284 286 286 286 287
293 293 293 291 290 289 288 287 285 284 283 283 283 283 283 282 282 282 281 281 281 281 281 280 280 280 282 287 288 287 284 284 284 284 284 284 284 284 284 284 284 284 284
294 294 293 291 289 289 287 285 284 283 283 282 282 281 281 280 280 279 280 280 279 279 279 281 279 278 278 286 287 286 283 284 284 284 284 284 283 285 287 284 283 283 284
292 291 290 289 288 286 285 284 283 282 282 281 281 280 279 277 277 278 277 278 278 280 280 279 277 275 273 283 286 285 281 279 283 284 284 285 284 286 287 284 284 283 283
287 287 288 287 286 285 284 283 281 281 280 279 278 277 277 276 276 275 276 276 278 277 276 275 274 273 275 278 285 286 282 282 283 283 281 282 286 287 287 287 285 284 285
284 284 284 283 283 284 283 281 280 278 276 276 275 273 272 276 275 273 275 274 273 270 268 268 272 275 276 280 282 284 285 286 282 280 281 283 286 287 286 286 287 287 285
281 280 281 280 278 279 281 279 276 275 274 272 270 270 274 274 275 274 272 271 269 268 270 271 270 273 276 275 281 282 284 285 283 282 283 286 286 286 284 285 287 283 281
279 277 279 279 277 276 276 276 275 274 271 273 273 274 273 272 272 274 274 270 267 267 269 270 273 273 274 274 275 278 280 281 281 283 283 284 283 283 283 282 283 282 281
277 277 279 279 275 274 272 272 272 273 273 272 272 272 271 271 271 272 271 271 271 270 266 266 273 272 269 274 282 282 281 282 282 281 278 276 276 276 278 280 280 280 279
275 275 274 274 272 271 270 269 270 271 272 271 270 270 269 269 269 268 267 272 274 276 277 278 275 275 280 281 281 281 281 281 280 271 268 269 270 270 271 272 273 274 276
Wind_Speed
8 8 9 10 8 7 11 14 13 12 9 5 6 4 7 6 5 4 6 7 5 6 6 4 5 5 5 6 5 3 5 3 2 2 3 4 6 6 5 4 4 6 5
7 8 8 7 9 10 9 10 14 13 12 9 8 4 5 3 4 5 6 7 7 7 6 6 6 6 4 5 5 3 2 2 3 2 1 4 5 3 3 2 3 6 3
10 8 8 8 7 6 6 7 7 10 12 11 5 2 3 1 3 4 4 6 8 8 8 7 5 6 5 6 6 6 6 3 2 4 2 2 4 3 2 3 3 4 2
6 4 6 6 7 5 3 4 5 7 7 7 8 9 7 7 5 4 5 6 8 8 8 8 7 7 6 6 6 5 4 4 4 1 4 3 1 2 4 3 3 3 5
7 9 8 6 4 4 3 2 3 3 4 8 9 8 5 4 3 3 5 6 5 7 8 7 7 7 5 6 6 4 6 5 3 4 2 3 3 3 5 4 4 3 4
6 7 5 5 4 3 3 1 3 3 5 5 7 11 9 8 5 3 3 3 4 4 6 6 5 4 4 5 5 5 5 5 4 2 3 3 3 3 4 5 5 6 4
8 8 8 6 4 3 2 2 3 2 3 6 7 8 9 8 8 7 4 4 3 3 4 4 4 3 4 4 4 4 4 4 3 4 3 3 4 2 2 2 4 4 3
6 7 6 6 6 5 4 5 5 4 4 4 4 4 6 4 2 5 3 3 2 3 1 3 3 2 1 1 2 1 2 2 2 2 2 2 2 2 2 2 3 10 6
8 8 7 7 6 5 4 5 6 4 5 5 5 5 5 7 7 8 5 4 5 4 6 7 6 6 6 5 4 4 3 3 3 2 2 2 2 2 3 3 3 6 10
7 6 6 7 4 5 5 5 5 5 5 6 6 5 6 6 5 9 8 7 5 5 6 7 7 7 7 6 6 5 5 5 4 4 5 4 4 4 4 3 4 3 7
8 7 5 5 5 5 5 5 6 6 5 5 6 7 6 6 7 10 7 6 6 6 7 7 7 7 6 6 7 6 6 7 6 5 5 5 5 4 4 4 4 4 5
8 7 7 7 6 6 5 5 4 6 4 5 7 7 7 7 11 9 7 6 8 6 7 7 7 7 7 6 6 6 5 6 5 5 5 5 3 4 4 3 5 5 6
8 7 6 7 6 6 6 5 5 6 5 5 8 7 8 10 9 8 7 6 7 7 7 7 7 6 6 6 6 5 5 5 4 4 5 5 4 4 3 3 5 7 7
12 9 7 7 7 6 6 6 5 5 5 6 8 8 7 8 7 8 7 7 5 7 6 6 6 6 5 6 5 5 5 5 4 4 4 4 4 5 5 6 5 6 8
9 10 10 8 8 7 6 6 5 5 5 8 8 7 6 7 6 8 7 6 6 5 5 6 6 6 5 4 4 5 5 5 5 5 4 4 4 7 7 5 5 6 6
12 12 11 11 11 11 9 8 7 6 6 8 8 6 7 6 6 7 6 6 6 6 6 6 6 6 4 6 6 5 3 4 4 5 4 5 5 7 11 12 14 12 8
14 14 14 13 12 11 10 10 8 7 7 8 6 7 6 6 6 6 6 6 6 5 6 6 5 4 2 7 7 7 4 4 4 4 6 6 5 8 7 11 15 11 15
10 12 13 12 11 9 8 9 8 8 8 7 7 6 6 6 5 6 6 5 4 5 3 2 2 1 3 7 8 7 4 5 5 4 4 4 5 6 8 8 9 9 8
8 10 9 11 10 12 11 11 9 8 9 8 7 5 5 5 5 5 5 4 3 2 2 2 4 4 3 6 7 6 2 5 5 4 5 4 5 10 15 11 10 10 9
8 12 12 12 13 11 12 13 11 9 8 7 6 5 5 5 5 5 4 2 2 2 1 3 2 3 3 6 7 6 1 2 4 3 5 8 8 16 17 10 10 12 10
7 9 11 12 12 13 13 12 10 8 6 6 6 5 4 5 4 4 2 2 3 4 5 3 4 4 2 5 9 10 1 3 3 5 5 4 11 15 18 19 8 8 12
6 6 9 9 9 11 12 11 10 7 6 6 5 5 3 3 3 4 3 3 4 4 3 3 2 2 4 7 8 11 11 10 5 5 5 6 15 19 20 16 13 16 13
6 4 9 10 5 6 9 12 8 8 7 7 6 4 5 3 3 4 4 3 4 3 1 2 2 2 2 2 8 11 12 12 8 5 11 18 19 19 14 18 16 8 4
7 5 11 11 9 6 6 8 10 9 8 8 6 5 5 4 3 3 3 3 2 1 1 1 1 1 2 2 2 3 4 7 7 9 6 11 14 16 14 8 7 3 3
3 4 7 9 7 6 7 6 7 7 7 6 5 5 4 4 3 3 2 1 2 3 2 3 1 1 3 3 11 10 6 6 9 9 4 5 5 6 7 7 5 4 4
6 6 6 7 7 7 7 6 5 6 9 8 5 4 4 3 2 2 1 3 4 2 2 2 2 1 5 10 13 13 13 12 15 3 3 5 5 6 6 7 7 7 9
Wind_Direction
232 218 202 196 190 189 176 181 182 188 175 167 178 192 197 207 205 194 184 182 194 192 184 188 191 174 183 200 195 189 211 229 191 307 305 277 243 247 256 255 248 253 246
223 222 203 191 184 184 190 179 187 182 188 185 190 173 169 167 194 185 192 194 186 202 196 198 200 189 183 193 202 177 172 224 190 195 101 310 324 336 256 273 269 270 276
206 206 194 192 159 165 173 183 188 188 193 187 160 90 89 130 162 195 201 200 194 199 199 202 198 194 184 206 202 187 190 213 173 206 201 264 248 322 310 293 293 275 271
211 171 170 158 155 148 138 148 169 194 192 167 180 186 190 186 203 189 190 191 197 206 203 205 203 204 198 198 208 192 195 163 211 201 234 247 165 245 312 324 316 329 292
204 161 145 137 124 133 150 177 194 197 205 189 184 184 187 183 185 187 185 182 190 203 201 205 201 204 205 209 199 178 190 193 193 188 171 211 208 215 236 270 303 309 264
143 124 122 122 95 47 49 318 197 196 213 206 186 187 180 186 179 187 210 200 183 194 205 198 202 202 198 201 203 210 203 211 214 208 185 196 185 201 200 242 256 264 290
155 147 146 140 119 118 94 98 122 134 174 199 194 186 186 182 188 187 191 200 171 182 207 181 187 193 206 205 206 203 210 195 188 202 217 225 227 204 209 243 274 261 282
169 158 156 145 129 123 121 123 102 91 112 116 122 178 187 180 160 122 112 96 104 97 74 185 171 221 217 208 168 130 156 165 212 256 252 258 250 247 229 230 265 297 284
168 156 154 154 143 130 124 133 122 106 108 116 105 94 109 119 124 96 86 95 78 72 72 70 86 72 64 66 72 81 62 60 52 30 349 338 323 295 273 269 277 296 302
155 152 160 151 139 123 119 102 98 113 114 103 84 78 80 78 102 96 84 77 74 74 79 77 72 68 56 52 61 61 36 59 36 30 17 6 355 347 338 318 303 270 288
170 166 156 135 131 111 104 106 107 108 88 83 89 89 77 74 81 84 81 75 73 70 72 71 74 70 64 54 66 60 45 50 36 26 21 2 359 348 340 339 329 315 304
165 167 157 147 138 132 128 126 114 104 96 92 88 85 83 79 80 81 79 77 85 72 82 81 77 72 64 55 62 63 53 55 41 22 16 355 346 346 339 322 313 307 306
165 166 157 155 151 148 144 136 126 114 99 95 94 82 82 87 90 87 80 76 84 80 72 77 77 73 69 68 59 66 58 51 41 15 358 337 339 329 322 323 323 316 310
174 168 164 165 158 155 147 141 130 120 119 99 96 98 95 96 98 95 87 82 78 83 77 74 85 84 82 68 60 53 44 29 17 1 344 336 339 332 324 322 306 314 311
177 178 176 169 158 153 150 141 126 124 121 105 101 100 95 94 98 91 88 85 79 85 89 85 68 58 55 37 39 37 30 16 354 353 348 339 330 325 328 319 312 309 306
194 187 176 169 170 166 162 152 146 135 121 117 115 108 96 101 99 99 102 95 84 69 66 57 54 45 33 28 30 50 34 21 358 352 357 348 344 337 334 329 322 316 311
194 188 184 177 174 170 161 155 140 121 115 117 111 107 112 109 102 102 91 76 66 65 61 54 50 46 29 33 36 38 43 33 23 5 356 347 339 334 318 320 318 312 304
186 186 182 175 166 147 133 121 121 123 125 119 111 114 120 111 108 98 91 81 75 72 72 55 55 29 17 30 37 39 35 21 357 346 328 314 313 314 315 302 303 292 284
194 186 172 155 144 147 139 132 129 132 133 131 130 136 131 119 109 101 97 81 76 63 45 6 16 18 352 16 27 33 20 356 339 327 303 295 294 293 306 307 296 294 291
162 157 151 145 144 145 140 140 147 145 142 144 136 119 114 116 110 109 107 102 101 80 47 26 8 318 311 333 2 9 253 298 324 299 293 297 305 315 313 306 304 305 313
115 119 142 151 146 142 143 144 144 152 133 120 119 120 120 120 120 123 100 108 96 76 48 25 338 338 5 349 355 346 312 279 312 322 301 269 294 313 313 308 302 292 308
100 106 119 123 134 144 143 143 147 127 118 112 104 92 75 72 85 88 77 75 75 77 44 34 359 351 346 351 353 351 340 327 325 303 297 292 296 312 312 309 293 306 321
118 98 128 123 109 118 143 145 142 133 124 115 119 122 116 103 101 132 115 101 84 89 52 37 9 321 307 304 337 327 330 322 316 296 291 314 313 310 307 297 288 299 292
152 142 141 149 149 136 116 129 141 138 137 140 139 136 122 125 108 92 89 92 99 103 89 52 339 301 306 296 287 291 302 297 305 298 304 309 318 308 298 292 280 255 257
130 150 157 152 140 124 113 121 127 140 142 135 136 136 136 144 133 117 128 136 209 167 174 223 253 330 322 301 328 329 326 321 321 333 320 321 329 332 337 333 313 301 284
150 149 142 139 146 133 131 127 138 154 149 149 155 154 148 137 116 110 72 9 37 21 67 46 44 293 330 343 337 327 337 349 347 354 349 334 333 333 335 330 325 322 320